sat.trackr.live / text

‹ back to catalog

STARLINK-4426

NORAD 53484 · 2022-099V

PAYLOAD ACTIVE UNKNOWN

§ Identity

Operator
Country
US
Launch date
2022-08-12
Launch site
AFWTR
Launch vehicle
Mass (kg)
RCS (m²)

Purposes: comms

External: N2YO · Heavens-Above · Gunter

§ Orbital elements

Epoch: 2026-05-24T21:39:54.749664Z

Period
95.64 min
Inclination
97.4471°
Eccentricity
0.0001733
Mean motion
15.05649847 rev/d
Perigee alt
548.3 km
Apogee alt
550.7 km
Semi-major
6,927.6 km
B*
2.9864e-5
RAAN
265.9397°
Arg perigee
115.2413°
Mean anomaly
244.8994°
Rev number
20,751

§ Raw data

STARLINK-44261 53484U 22099V   26144.90271701  .00000372  00000+0  29864-4 0  99942 53484  97.4471 265.9397 0001733 115.2413 244.8994 15.05649847207514

JSON: /api/v1/satellites/53484 · /tle

For live sub-satellite position, see the globe view (requires WebGL).

§ Visibility from observer

Set your observer location to see the next 7 days of passes ≥ 10°. The values pass through the URL so the page stays shareable.

No JS? Fill the form by hand. The geolocation button needs JavaScript.